Regional Weather Roundup
Issued by NWS

Home | Current Version | Previous Version | Text Only | Print | Product List | Glossary Off
Versions: 1 2 3 4 5 6 7 8 9 10 11 12 13 14 15 16 17 18 19 20 21 22 23 24 25 26 27 28 29 30 31 32 33 34 35 36 37 38 39 40 41 42 43 44 45 46 47 48 49 50

000
ASUS43 KTOP 280959
RWRKS

WEATHER ROUNDUP FOR KANSAS
NATIONAL WEATHER SERVICE GOODLAND KS
500 AM CDT SAT MAY 28 2016

NOTE:  "FAIR" INDICATES FEW OR NO CLOUDS BELOW 12,000 FEET WITH NO
SIGNIFICANT WEATHER AND/OR OBSTRUCTIONS TO VISIBILITY.

KSZ001>006-013>018-027>032-041>047-281100-
NORTHWEST KANSAS

CITY           SKY/WX    TMP DP  RH WIND       PRES   REMARKS
GOODLAND       CLEAR     47  44  90 W13       29.89R
HAYS           PTCLDY    54  46  76 W5        29.80R
HILL CITY      PTCLDY    54  50  86 NW8       29.80S
RUSSELL        PTCLDY    54  54 100 W6        29.77S
$$

KSZ061>065-074>080-084>089-281100-
SOUTHWEST KANSAS

CITY           SKY/WX    TMP DP  RH WIND       PRES   REMARKS
DODGE CITY     CLEAR     52  48  86 NW13      29.84S
ELKHART          N/A     48  41  77 W9          N/A
GARDEN CITY    CLEAR     46  44  93 W8        29.86R
GREAT BEND     CLOUDY    57  50  77 NW6       29.80R
LIBERAL        CLEAR     50  43  76 NW8       29.90R
$$

KSZ066>073-081>083-090>101-281100-
SOUTHEAST KANSAS

CITY           SKY/WX    TMP DP  RH WIND       PRES   REMARKS
CHANUTE        PTCLDY    63  60  90 S14       29.76R
COFFEYVILLE    MOCLDY    64  62  93 S8        29.79R
HUTCHINSON     PTCLDY    58  56  93 W5        29.76S
MEDICINE LODGE   N/A     57  52  83 W9        29.80R
NEWTON         PTCLDY    57  54  88 SW5       29.76R
PARSONS        CLEAR     64  62  93 S10       29.79R
WICHITA INTL   PTCLDY    57  54  89 S7        29.74R
WICHITA JABRA  CLOUDY    58  55  90 SW8       29.75R
WINFIELD       CLEAR     60  55  83 SW10      29.78R
$$

KSZ007>012-019>026-033>040-048>060-102>105-281100-
NORTHEAST KANSAS

CITY           SKY/WX    TMP DP  RH WIND       PRES   REMARKS
CONCORDIA      CLOUDY    58  56  93 NW7       29.74F
EMPORIA        CLOUDY    60  58  92 S9        29.74R
LAWRENCE       CLOUDY    60  59  96 E5        29.77R
MANHATTAN      CLOUDY    60  57  89 CALM      29.73S
OLATHE IND     CLOUDY    59  58  96 E5        29.78R
OLATHE EXE     MOCLDY    57  56  96 SE3       29.78R
SALINA         MOCLDY    60  58  92 CALM      29.75R
TOPEKA BILLARD CLOUDY    60  58  92 E7        29.75S
TOPEKA FORBES  CLOUDY    60  58  92 E8        29.74F
$$



USA.gov is the U.S. government's official web portal to all federal, state and local government web resources and services.